Location: Boitzum
(52.1496°N, 9.6943°E)
Time: 22:07:10
(UTC+00:00)

Cosmos 2297 Rocket - Pass Details

Date: 13 January 2026
Orbit: 837 x 844 km, 71.0° (Epoch: 7 February)

Event Time Altitude Azimuth Distance (km) Brightness Sun altitude
Exits shadow 04:05:47 12° 358° (N) 2,305 4.4 -29.6°
Drops below altitude 10° 04:07:09 10° 12° (NNE) 2,476 4.8 -29.4°
Sets 04:11:07 0° 39° (NE) 3,413 5.9 -28.8°
